GW4090 Weather Reports


time (UTC)temp
F
wind
direction
speed
knots
gust
knots
rain 1hr
in
rain 24hr
in
rain mn
in
humidity
%
barometer
mb
20260906113017 70 304 0.0 0.0 0.01 0.07 0.01 97 1011.6
20260906111527 69 304 0.0 0.0 0.00 0.06 0.00 97 1011.7
20260906110030 69 304 0.0 0.0 0.00 0.06 0.00 96 1011.6
20260906104506 69 304 0.0 0.0 0.00 0.06 0.00 96 1011.4
20260906103006 70 304 0.0 0.0 0.00 0.06 0.00 96 1011.3
20260906101508 70 304 0.0 1.7 0.00 0.06 0.00 96 1011.2
20260906100008 70 318 0.0 0.0 0.00 0.06 0.00 96 1011.2
20260906094507 70 318 0.0 1.7 0.00 0.06 0.00 96 1010.9
20260906093015 70 319 0.0 1.7 0.00 0.06 0.00 96 1010.8
20260906091507 70 319 0.0 0.9 0.00 0.06 0.00 96 1010.7
20260906090004 70 319 0.0 1.7 0.00 0.06 0.00 96 1010.7
20260906084507 70 299 0.0 1.7 0.00 0.06 0.00 96 1010.6
20260906083010 70 299 0.0 1.7 0.00 0.06 0.00 96 1010.8
20260906081512 70 299 0.0 1.7 0.00 0.06 0.00 96 1011.0
20260906080010 71 351 0.0 0.9 0.00 0.06 0.00 96 1011.2
20260906074506 71 352 0.0 1.7 0.00 0.06 0.00 96 1011.2
20260906073015 71 352 0.0 1.7 0.00 0.06 0.00 96 1010.9
20260906071517 71 352 0.0 1.7 0.00 0.06 0.00 96 1011.3
20260906070017 71 352 0.0 1.7 0.00 0.06 0.00 96 1011.4
20260906064516 71 352 0.0 1.7 0.00 0.06 0.00 96 1011.4
20260906063009 71 352 0.0 0.9 0.00 0.06 0.00 96 1011.5
20260906061511 71 352 0.0 0.0 0.00 0.06 0.00 96 1011.5
20260906060017 71 22 0.0 0.0 0.00 0.06 0.00 96 1011.5
20260906054523 71 22 0.0 0.0 0.00 0.06 0.00 95 1011.6
20260906053026 71 22 0.0 0.0 0.00 0.06 0.00 95 1011.6
20260906051511 72 21 0.0 1.7 0.00 0.06 0.00 95 1011.7
20260906050018 72 22 0.0 0.0 0.00 0.06 0.00 95 1011.7
20260906044520 72 20 0.0 0.9 0.00 0.06 0.00 95 1012.0
20260906043033 72 20 0.0 1.7 0.00 0.06 0.00 95 1012.0
20260906041521 72 24 0.0 1.7 0.00 0.06 0.00 95 1011.9
20260906040014 72 316 0.9 3.5 0.00 0.06 0.00 95 1012.2
20260906034524 72 223 0.0 1.7 0.00 0.06 0.06 95 1012.0
20260906033026 72 193 0.9 1.7 0.00 0.06 0.06 95 1012.2
20260906031525 72 214 0.0 1.7 0.00 0.06 0.06 95 1012.3
20260906030028 72 261 0.0 1.7 0.00 0.06 0.06 94 1012.3
20260906024516 73 258 0.9 2.6 0.00 0.06 0.06 94 1012.1
20260906023021 73 198 0.0 1.7 0.00 0.06 0.06 94 1011.8
20260906021529 73 221 0.0 6.1 0.00 0.06 0.06 94 1011.4
20260906020026 73 84 1.7 3.5 0.00 0.06 0.06 94 1011.6
20260906014541 73 288 1.7 1.7 0.03 0.06 0.06 94 1011.1
20260906013020 74 289 0.9 2.6 0.06 0.06 0.06 93 1010.3
20260906011526 74 172 1.7 7.0 0.06 0.06 0.06 91 1009.7
20260906010032 74 154 1.7 2.6 0.06 0.06 0.06 91 1010.4
20260906004529 76 138 2.6 4.3 0.03 0.03 0.03 85 1011.3
20260906003031 82 277 2.6 9.6 0.00 0.00 0.00 70 1012.7
20260906001522 84 260 1.7 2.6 0.00 0.00 0.00 87 1012.0
20260906000030 83 223 0.0 1.7 0.00 0.00 0.00 87 1011.6
20260905234530 84 257 0.0 0.9 0.00 0.00 0.00 86 1011.7
20260905233031 84 196 0.0 1.7 0.00 0.00 0.00 85 1011.5
20260905231511 86 196 0.0 1.7 0.00 0.00 0.00 81 1011.7
20260905230003 87 176 0.0 2.6 0.00 0.00 0.00 79 1011.4
20260905224508 88 202 0.9 5.2 0.00 0.00 0.00 76 1011.2
20260905223014 89 265 0.9 5.2 0.00 0.00 0.00 76 1011.3
20260905221518 89 22 1.7 7.0 0.00 0.00 0.00 75 1011.2
20260905220003 90 81 3.5 7.0 0.00 0.00 0.00 73 1011.0
20260905214503 91 283 0.9 0.9 0.00 0.00 0.00 62 1010.8
20260905213009 92 283 1.7 1.7 0.00 0.00 0.00 59 1010.9
20260905211511 93 288 0.0 2.6 0.00 0.00 0.00 58 1010.9
20260905210024 92 36 1.7 2.6 0.00 0.00 0.00 58 1010.7
20260905204504 92 30 2.6 3.5 0.00 0.00 0.00 60 1010.7
20260905203008 94 267 1.7 2.6 0.00 0.00 0.00 56 1010.6
20260905201515 92 269 1.7 3.5 0.00 0.00 0.00 60 1010.4
20260905200018 92 269 0.9 5.2 0.00 0.00 0.00 61 1010.6
20260905194532 92 269 1.7 6.1 0.00 0.00 0.00 61 1010.7
20260905193004 93 196 1.7 4.3 0.00 0.00 0.00 64 1011.0
20260905191511 92 269 1.7 3.5 0.00 0.00 0.00 61 1011.4
20260905190046 93 269 1.7 3.5 0.00 0.00 0.00 62 1011.9
20260905184523 93 266 1.7 5.2 0.00 0.00 0.00 63 1012.1
20260905183028 92 276 0.0 5.2 0.00 0.00 0.00 64 1012.2
20260905181512 91 5 1.7 7.0 0.00 0.00 0.00 68 1012.3
20260905180019 92 269 1.7 6.1 0.00 0.00 0.00 64 1012.4
20260905174520 91 130 1.7 5.2 0.00 0.00 0.00 68 1012.7
20260905173030 91 247 3.5 5.2 0.00 0.00 0.00 64 1012.9
20260905171531 89 280 0.9 2.6 0.00 0.00 0.00 72 1013.2
20260905170013 90 27 2.6 4.3 0.00 0.00 0.00 69 1013.2
20260905164533 90 259 0.0 3.5 0.00 0.00 0.00 70 1013.5
20260905163023 88 280 0.9 3.5 0.00 0.00 0.00 71 1013.9
20260905161527 87 280 1.7 2.6 0.00 0.00 0.00 74 1014.0
20260905160031 88 280 1.7 5.2 0.00 0.00 0.00 72 1014.2
20260905154514 88 277 1.7 3.5 0.00 0.00 0.00 73 1014.3
20260905153024 87 277 0.9 5.2 0.00 0.00 0.00 76 1014.6
20260905151525 86 277 1.7 6.1 0.00 0.00 0.00 78 1014.6
20260905150032 87 277 2.6 7.8 0.00 0.00 0.00 78 1014.6
20260905144511 86 265 1.7 7.8 0.00 0.00 0.00 80 1014.6
20260905143023 84 275 2.6 7.0 0.00 0.00 0.00 81 1014.7
20260905141524 85 275 0.9 3.5 0.00 0.00 0.00 81 1014.7
20260905140028 84 275 1.7 6.1 0.00 0.00 0.00 83 1014.7
20260905134511 84 279 1.7 5.2 0.00 0.00 0.00 84 1014.9
20260905133020 83 279 0.9 2.6 0.00 0.00 0.00 87 1014.9
20260905131503 82 279 0.0 2.6 0.00 0.00 0.00 89 1015.0
20260905130002 80 279 0.9 2.6 0.00 0.00 0.00 91 1014.9
20260905124506 78 279 0.0 1.7 0.00 0.00 0.00 92 1014.8
20260905123012 77 279 0.0 1.7 0.00 0.00 0.00 93 1014.9
20260905121519 75 279 0.0 1.7 0.00 0.00 0.00 95 1014.8
20260905120003 74 278 0.0 1.7 0.00 0.00 0.00 96 1014.9
20260905114503 73 278 0.0 0.0 0.00 0.00 0.00 96 1014.7